Zurück zum Katalog

THORAD DELTA 1 DEB

AktivSSO
NORAD 8401·DEBRIS·🇺🇸 United States

Gestartet Nov 15, 1974 von Vandenberg Space Force Base

Loading…

Nächste Überflüge (nächste 24 Stunden)

TLE

AktuellSource: Space-Track

Epoche: Sep 14, 2026, 10:31 UTC

1 08401U 74089CD  26257.43850760 -.00000066  00000-0 -10814-3 0  9997
2 08401 101.4055 332.1784 0067636 237.9181 186.2027 12.67233900396599

Verfolge THORAD DELTA 1 DEB in Echtzeit mit AllMySat

Download on the App Store